contact:dominique.lefevre@mio.osupytheas.fr, maurice.libes@osupytheas.fr, didier.mallarino@osupytheas.fr
Project:EMSO http://www.emso-fr.org/EMSO-France
Depth: 2436.0 m
Title:EMSO Ligure Ouest : Data MII capteur OXYGEN
DateTime,Latitude,Longitude,Optode-Type,Optode_Serial,Oxygen,Saturation_Oxygen,Temperature
DateTime,Latitude,Longitude,Optode-Type,Optode_Serial,µmol.l-1,%,degC
2019-06-19T00:01:01,42.805,6.029,4330,1995,193.242,59.101,13.292
2019-06-19T00:04:01,42.805,6.029,4330,1995,193.355,59.134,13.290
2019-06-19T00:07:00,42.805,6.029,4330,1995,193.356,59.137,13.292
2019-06-19T00:10:00,42.805,6.029,4330,1995,193.328,59.126,13.290
2019-06-19T00:13:00,42.805,6.029,4330,1995,193.382,59.141,13.289
2019-06-19T00:16:00,42.805,6.029,4330,1995,193.427,59.155,13.290
2019-06-19T00:19:00,42.805,6.029,4330,1995,193.476,59.170,13.290
2019-06-19T00:22:01,42.805,6.029,4330,1995,193.460,59.165,13.289
2019-06-19T00:25:01,42.805,6.029,4330,1995,193.497,59.180,13.293
2019-06-19T00:28:01,42.805,6.029,4330,1995,193.449,59.163,13.290
2019-06-19T00:31:01,42.805,6.029,4330,1995,193.376,59.141,13.291
2019-06-19T00:34:01,42.805,6.029,4330,1995,193.380,59.143,13.291
2019-06-19T00:37:01,42.805,6.029,4330,1995,193.419,59.155,13.292
2019-06-19T00:40:01,42.805,6.029,4330,1995,193.419,59.155,13.292
2019-06-19T00:46:00,42.805,6.029,4330,1995,193.380,59.139,13.288
2019-06-19T00:49:00,42.805,6.029,4330,1995,193.411,59.149,13.289
2019-06-19T00:52:00,42.805,6.029,4330,1995,193.393,59.148,13.292
2019-06-19T00:55:00,42.805,6.029,4330,1995,193.306,59.119,13.291
2019-06-19T00:58:00,42.805,6.029,4330,1995,193.270,59.109,13.291
2019-06-19T01:01:00,42.805,6.029,4330,1995,193.225,59.094,13.291
2019-06-19T01:04:00,42.805,6.029,4330,1995,193.137,59.066,13.290
2019-06-19T01:07:00,42.805,6.029,4330,1995,193.324,59.126,13.292
2019-06-19T01:10:00,42.805,6.029,4330,1995,193.400,59.148,13.290
2019-06-19T01:13:00,42.805,6.029,4330,1995,193.457,59.165,13.290
2019-06-19T01:16:00,42.805,6.029,4330,1995,193.507,59.180,13.290
2019-06-19T01:19:00,42.805,6.029,4330,1995,193.482,59.174,13.291
2019-06-19T01:22:00,42.805,6.029,4330,1995,193.336,59.128,13.290
2019-06-19T01:25:00,42.805,6.029,4330,1995,193.365,59.138,13.291
2019-06-19T01:28:00,42.805,6.029,4330,1995,193.445,59.162,13.291
2019-06-19T01:31:00,42.805,6.029,4330,1995,193.352,59.133,13.291
2019-06-19T01:34:00,42.805,6.029,4330,1995,193.299,59.117,13.291
2019-06-19T01:37:00,42.805,6.029,4330,1995,193.117,59.062,13.291
2019-06-19T01:40:00,42.805,6.029,4330,1995,193.223,59.094,13.291
2019-06-19T01:43:00,42.805,6.029,4330,1995,193.217,59.093,13.291
2019-06-19T01:46:00,42.805,6.029,4330,1995,193.239,59.100,13.291
2019-06-19T01:49:00,42.805,6.029,4330,1995,193.149,59.071,13.291
2019-06-19T01:52:00,42.805,6.029,4330,1995,193.178,59.082,13.292
2019-06-19T01:55:00,42.805,6.029,4330,1995,193.096,59.056,13.291
2019-06-19T01:58:00,42.805,6.029,4330,1995,193.107,59.058,13.290
2019-06-19T02:01:00,42.805,6.029,4330,1995,193.279,59.111,13.291
2019-06-19T02:04:00,42.805,6.029,4330,1995,193.224,59.098,13.294
2019-06-19T02:07:00,42.805,6.029,4330,1995,193.184,59.085,13.293
2019-06-19T02:10:00,42.805,6.029,4330,1995,193.120,59.065,13.293
2019-06-19T02:13:00,42.805,6.029,4330,1995,193.161,59.076,13.292
2019-06-19T02:16:00,42.805,6.029,4330,1995,193.106,59.061,13.293
2019-06-19T02:19:00,42.805,6.029,4330,1995,193.067,59.047,13.292
2019-06-19T02:22:00,42.805,6.029,4330,1995,193.062,59.046,13.292
2019-06-19T02:25:00,42.805,6.029,4330,1995,193.174,59.080,13.291
2019-06-19T02:28:00,42.805,6.029,4330,1995,193.173,59.081,13.292
2019-06-19T02:31:00,42.805,6.029,4330,1995,193.213,59.092,13.292
2019-06-19T02:34:00,42.805,6.029,4330,1995,193.240,59.102,13.293
2019-06-19T02:37:00,42.805,6.029,4330,1995,193.267,59.109,13.292
2019-06-19T02:40:00,42.805,6.029,4330,1995,193.176,59.084,13.294
2019-06-19T02:43:00,42.805,6.029,4330,1995,193.088,59.055,13.293
2019-06-19T02:46:00,42.805,6.029,4330,1995,193.172,59.081,13.293
2019-06-19T02:49:00,42.805,6.029,4330,1995,193.259,59.105,13.291
2019-06-19T02:52:00,42.805,6.029,4330,1995,193.156,59.074,13.291
2019-06-19T02:55:00,42.805,6.029,4330,1995,193.103,59.057,13.291
2019-06-19T02:58:00,42.805,6.029,4330,1995,193.299,59.118,13.292
2019-06-19T03:01:00,42.805,6.029,4330,1995,193.232,59.098,13.292
2019-06-19T03:04:00,42.805,6.029,4330,1995,193.300,59.117,13.290
2019-06-19T03:07:00,42.805,6.029,4330,1995,193.245,59.101,13.291
2019-06-19T03:10:00,42.805,6.029,4330,1995,193.272,59.109,13.291
2019-06-19T03:13:00,42.805,6.029,4330,1995,193.201,59.087,13.291
2019-06-19T03:16:00,42.805,6.029,4330,1995,193.135,59.068,13.291
2019-06-19T03:22:00,42.805,6.029,4330,1995,193.308,59.118,13.289
2019-06-19T03:25:00,42.805,6.029,4330,1995,193.345,59.133,13.292
2019-06-19T03:28:00,42.805,6.029,4330,1995,193.343,59.133,13.292
2019-06-19T03:31:00,42.805,6.029,4330,1995,193.287,59.114,13.291
2019-06-19T03:34:00,42.805,6.029,4330,1995,193.160,59.078,13.294
2019-06-19T03:37:00,42.805,6.029,4330,1995,193.114,59.065,13.294
2019-06-19T03:40:00,42.805,6.029,4330,1995,193.245,59.104,13.293
2019-06-19T03:43:00,42.805,6.029,4330,1995,193.269,59.111,13.293
2019-06-19T03:46:00,42.805,6.029,4330,1995,193.237,59.100,13.292
2019-06-19T03:49:00,42.805,6.029,4330,1995,193.337,59.131,13.292
2019-06-19T03:52:00,42.805,6.029,4330,1995,193.397,59.148,13.292
2019-06-19T03:55:00,42.805,6.029,4330,1995,193.371,59.140,13.291
2019-06-19T03:58:00,42.805,6.029,4330,1995,193.341,59.131,13.292
2019-06-19T04:01:00,42.805,6.029,4330,1995,193.284,59.114,13.291
2019-06-19T04:04:00,42.805,6.029,4330,1995,193.239,59.102,13.293
2019-06-19T04:07:00,42.805,6.029,4330,1995,193.227,59.095,13.290
2019-06-19T04:10:00,42.805,6.029,4330,1995,193.219,59.094,13.292
2019-06-19T04:13:00,42.805,6.029,4330,1995,193.203,59.090,13.292
2019-06-19T04:16:00,42.805,6.029,4330,1995,193.241,59.101,13.292
2019-06-19T04:19:00,42.805,6.029,4330,1995,193.125,59.064,13.291
2019-06-19T04:22:00,42.805,6.029,4330,1995,193.183,59.081,13.291
2019-06-19T04:25:00,42.805,6.029,4330,1995,193.205,59.089,13.292
2019-06-19T04:28:00,42.805,6.029,4330,1995,193.207,59.091,13.292
2019-06-19T04:31:00,42.805,6.029,4330,1995,193.055,59.042,13.291
2019-06-19T04:34:00,42.805,6.029,4330,1995,193.206,59.087,13.290
2019-06-19T04:37:00,42.805,6.029,4330,1995,193.326,59.124,13.290
2019-06-19T04:40:00,42.805,6.029,4330,1995,193.187,59.082,13.290
2019-06-19T04:43:00,42.805,6.029,4330,1995,193.261,59.106,13.291
2019-06-19T04:46:00,42.805,6.029,4330,1995,193.134,59.066,13.291
2019-06-19T04:49:00,42.805,6.029,4330,1995,193.188,59.083,13.290
2019-06-19T04:52:00,42.805,6.029,4330,1995,193.293,59.116,13.291
2019-06-19T04:55:00,42.805,6.029,4330,1995,193.436,59.159,13.291
2019-06-19T04:58:00,42.805,6.029,4330,1995,193.336,59.128,13.290
2019-06-19T05:01:00,42.805,6.029,4330,1995,193.380,59.141,13.290
2019-06-19T05:04:00,42.805,6.029,4330,1995,193.336,59.129,13.291
2019-06-19T05:07:00,42.805,6.029,4330,1995,193.366,59.140,13.292
2019-06-19T05:10:00,42.805,6.029,4330,1995,193.376,59.139,13.290
2019-06-19T05:13:00,42.805,6.029,4330,1995,193.391,59.146,13.291
2019-06-19T05:16:00,42.805,6.029,4330,1995,193.422,59.155,13.291
2019-06-19T05:19:00,42.805,6.029,4330,1995,193.433,59.159,13.291
2019-06-19T05:22:00,42.805,6.029,4330,1995,193.467,59.170,13.292
2019-06-19T05:25:00,42.805,6.029,4330,1995,193.433,59.158,13.291
2019-06-19T05:28:00,42.805,6.029,4330,1995,193.536,59.191,13.292
2019-06-19T05:31:00,42.805,6.029,4330,1995,193.487,59.174,13.290
2019-06-19T05:34:00,42.805,6.029,4330,1995,193.539,59.190,13.291
2019-06-19T05:37:00,42.805,6.029,4330,1995,193.422,59.155,13.291
2019-06-19T05:40:00,42.805,6.029,4330,1995,193.446,59.164,13.292
2019-06-19T05:43:00,42.805,6.029,4330,1995,193.394,59.148,13.292
2019-06-19T05:46:00,42.805,6.029,4330,1995,193.378,59.142,13.291
2019-06-19T05:49:00,42.805,6.029,4330,1995,193.401,59.148,13.291
2019-06-19T05:58:00,42.805,6.029,4330,1995,193.607,59.207,13.288
2019-06-19T06:01:00,42.805,6.029,4330,1995,193.613,59.211,13.289
2019-06-19T06:04:00,42.805,6.029,4330,1995,193.665,59.226,13.289
2019-06-19T06:07:00,42.805,6.029,4330,1995,193.599,59.208,13.290
2019-06-19T06:10:00,42.805,6.029,4330,1995,193.692,59.236,13.290
2019-06-19T06:13:00,42.805,6.029,4330,1995,193.726,59.246,13.289
2019-06-19T06:16:00,42.805,6.029,4330,1995,193.618,59.214,13.290
2019-06-19T06:19:00,42.805,6.029,4330,1995,193.577,59.202,13.290
2019-06-19T06:22:00,42.805,6.029,4330,1995,193.612,59.212,13.290
2019-06-19T06:25:00,42.805,6.029,4330,1995,193.674,59.231,13.290
2019-06-19T06:28:00,42.805,6.029,4330,1995,193.639,59.220,13.290
2019-06-19T06:31:00,42.805,6.029,4330,1995,193.604,59.209,13.290
2019-06-19T06:34:00,42.805,6.029,4330,1995,193.597,59.208,13.290
2019-06-19T06:37:00,42.805,6.029,4330,1995,193.599,59.209,13.291
2019-06-19T06:40:00,42.805,6.029,4330,1995,193.572,59.201,13.291
2019-06-19T06:43:00,42.805,6.029,4330,1995,193.627,59.216,13.290
2019-06-19T06:46:00,42.805,6.029,4330,1995,193.623,59.216,13.291
2019-06-19T06:49:00,42.805,6.029,4330,1995,193.541,59.191,13.290
2019-06-19T06:52:00,42.805,6.029,4330,1995,193.588,59.205,13.291
2019-06-19T06:55:00,42.805,6.029,4330,1995,193.607,59.211,13.290
2019-06-19T06:58:00,42.805,6.029,4330,1995,193.509,59.181,13.290
2019-06-19T07:01:00,42.805,6.029,4330,1995,193.496,59.177,13.291
2019-06-19T07:04:00,42.805,6.029,4330,1995,193.403,59.150,13.292
2019-06-19T07:07:00,42.805,6.029,4330,1995,193.562,59.198,13.291
2019-06-19T07:10:00,42.805,6.029,4330,1995,193.566,59.198,13.290
2019-06-19T07:13:00,42.805,6.029,4330,1995,193.523,59.188,13.292
2019-06-19T07:16:00,42.805,6.029,4330,1995,193.564,59.198,13.290
2019-06-19T07:19:00,42.805,6.029,4330,1995,193.596,59.207,13.290
2019-06-19T07:22:00,42.805,6.029,4330,1995,193.558,59.196,13.291
2019-06-19T07:25:00,42.805,6.029,4330,1995,193.674,59.231,13.290
2019-06-19T07:28:00,42.805,6.029,4330,1995,193.611,59.212,13.290
2019-06-19T07:31:00,42.805,6.029,4330,1995,193.627,59.216,13.289
2019-06-19T07:34:00,42.805,6.029,4330,1995,193.607,59.210,13.290
2019-06-19T07:37:00,42.805,6.029,4330,1995,193.656,59.224,13.289
2019-06-19T07:40:00,42.805,6.029,4330,1995,193.663,59.227,13.290
2019-06-19T07:43:00,42.805,6.029,4330,1995,193.756,59.255,13.289
2019-06-19T07:46:00,42.805,6.029,4330,1995,193.732,59.247,13.289
2019-06-19T07:49:00,42.805,6.029,4330,1995,193.762,59.257,13.290
2019-06-19T07:52:00,42.805,6.029,4330,1995,193.742,59.250,13.289
2019-06-19T07:55:00,42.805,6.029,4330,1995,193.723,59.245,13.289
2019-06-19T07:58:00,42.805,6.029,4330,1995,193.848,59.284,13.290
2019-06-19T08:01:00,42.805,6.029,4330,1995,193.937,59.310,13.289
2019-06-19T08:04:00,42.805,6.029,4330,1995,193.981,59.325,13.290
2019-06-19T08:07:00,42.805,6.029,4330,1995,194.073,59.352,13.289
2019-06-19T08:10:00,42.805,6.029,4330,1995,194.033,59.340,13.290
2019-06-19T08:13:00,42.805,6.029,4330,1995,194.154,59.378,13.290
2019-06-19T08:16:00,42.805,6.029,4330,1995,194.224,59.398,13.289
2019-06-19T08:19:00,42.805,6.029,4330,1995,194.167,59.380,13.289
2019-06-19T08:22:00,42.805,6.029,4330,1995,194.215,59.395,13.289
2019-06-19T08:25:00,42.805,6.029,4330,1995,194.191,59.388,13.290
2019-06-19T08:31:00,42.805,6.029,4330,1995,194.280,59.414,13.288
2019-06-19T08:34:00,42.805,6.029,4330,1995,194.300,59.421,13.289
2019-06-19T08:37:00,42.805,6.029,4330,1995,194.269,59.411,13.289
2019-06-19T08:40:00,42.805,6.029,4330,1995,194.267,59.411,13.289
2019-06-19T08:43:00,42.805,6.029,4330,1995,194.252,59.407,13.289
2019-06-19T08:46:00,42.805,6.029,4330,1995,194.190,59.387,13.289
2019-06-19T08:49:00,42.805,6.029,4330,1995,194.228,59.400,13.290
2019-06-19T08:52:00,42.805,6.029,4330,1995,194.281,59.415,13.289
2019-06-19T08:55:00,42.805,6.029,4330,1995,194.258,59.408,13.289
2019-06-19T08:58:00,42.805,6.029,4330,1995,194.302,59.423,13.290
2019-06-19T09:01:00,42.805,6.029,4330,1995,194.238,59.403,13.290
2019-06-19T09:04:00,42.805,6.029,4330,1995,194.221,59.399,13.290
2019-06-19T09:07:00,42.805,6.029,4330,1995,194.202,59.393,13.291
2019-06-19T09:10:00,42.805,6.029,4330,1995,194.172,59.384,13.290
2019-06-19T09:13:00,42.805,6.029,4330,1995,194.244,59.405,13.290
2019-06-19T09:16:00,42.805,6.029,4330,1995,194.210,59.394,13.289
2019-06-19T09:19:00,42.805,6.029,4330,1995,194.131,59.372,13.291
2019-06-19T09:22:00,42.805,6.029,4330,1995,194.050,59.347,13.291
2019-06-19T09:25:00,42.805,6.029,4330,1995,194.061,59.350,13.291
2019-06-19T09:28:00,42.805,6.029,4330,1995,194.051,59.346,13.290
2019-06-19T09:31:00,42.805,6.029,4330,1995,194.094,59.359,13.290
2019-06-19T09:34:00,42.805,6.029,4330,1995,194.105,59.362,13.290
2019-06-19T09:37:00,42.805,6.029,4330,1995,194.035,59.343,13.291
2019-06-19T09:40:00,42.805,6.029,4330,1995,194.095,59.361,13.291
2019-06-19T09:43:00,42.805,6.029,4330,1995,194.093,59.361,13.291
2019-06-19T09:46:00,42.805,6.029,4330,1995,193.986,59.330,13.292
2019-06-19T09:49:00,42.805,6.029,4330,1995,194.025,59.339,13.290
2019-06-19T09:52:00,42.805,6.029,4330,1995,194.020,59.340,13.292
2019-06-19T09:55:00,42.805,6.029,4330,1995,193.979,59.326,13.291
2019-06-19T09:58:00,42.805,6.029,4330,1995,193.915,59.309,13.294
2019-06-19T10:01:00,42.805,6.029,4330,1995,193.876,59.295,13.292
2019-06-19T10:04:00,42.805,6.029,4330,1995,193.869,59.293,13.292
2019-06-19T10:07:00,42.805,6.029,4330,1995,193.860,59.291,13.293
2019-06-19T10:10:00,42.805,6.029,4330,1995,193.793,59.270,13.292
2019-06-19T10:13:00,42.805,6.029,4330,1995,193.936,59.311,13.290
2019-06-19T10:16:00,42.805,6.029,4330,1995,193.928,59.311,13.292
2019-06-19T10:19:00,42.805,6.029,4330,1995,193.940,59.313,13.291
2019-06-19T10:22:00,42.805,6.029,4330,1995,193.973,59.324,13.291
2019-06-19T10:25:00,42.805,6.029,4330,1995,193.902,59.302,13.291
2019-06-19T10:28:00,42.805,6.029,4330,1995,193.863,59.291,13.292
2019-06-19T10:31:00,42.805,6.029,4330,1995,193.793,59.270,13.292
2019-06-19T10:34:00,42.805,6.029,4330,1995,193.854,59.287,13.291
2019-06-19T10:37:00,42.805,6.029,4330,1995,193.798,59.270,13.291
2019-06-19T10:40:00,42.805,6.029,4330,1995,193.735,59.252,13.292
2019-06-19T10:43:00,42.805,6.029,4330,1995,193.688,59.237,13.292
2019-06-19T10:46:00,42.805,6.029,4330,1995,193.739,59.252,13.291
2019-06-19T10:49:00,42.805,6.029,4330,1995,193.706,59.243,13.292
2019-06-19T10:52:00,42.805,6.029,4330,1995,193.705,59.242,13.291
2019-06-19T10:55:00,42.805,6.029,4330,1995,193.631,59.219,13.291
2019-06-19T10:58:00,42.805,6.029,4330,1995,193.646,59.223,13.290
2019-06-19T11:01:00,42.805,6.029,4330,1995,193.786,59.265,13.290
2019-06-19T11:07:00,42.805,6.029,4330,1995,193.692,59.238,13.291
2019-06-19T11:10:00,42.805,6.029,4330,1995,193.786,59.267,13.291
2019-06-19T11:13:00,42.805,6.029,4330,1995,193.691,59.239,13.292
2019-06-19T11:16:00,42.805,6.029,4330,1995,193.619,59.217,13.293
2019-06-19T11:19:00,42.805,6.029,4330,1995,193.627,59.219,13.292
2019-06-19T11:22:00,42.805,6.029,4330,1995,193.577,59.204,13.292
2019-06-19T11:25:00,42.805,6.029,4330,1995,193.473,59.176,13.295
2019-06-19T11:28:00,42.805,6.029,4330,1995,193.508,59.185,13.294
2019-06-19T11:31:00,42.805,6.029,4330,1995,193.445,59.165,13.293
2019-06-19T11:34:00,42.805,6.029,4330,1995,193.460,59.170,13.294
2019-06-19T11:37:00,42.805,6.029,4330,1995,193.437,59.162,13.293
2019-06-19T11:40:00,42.805,6.029,4330,1995,193.547,59.194,13.292
2019-06-19T11:43:00,42.805,6.029,4330,1995,193.361,59.140,13.294
2019-06-19T11:46:00,42.805,6.029,4330,1995,193.440,59.163,13.293
2019-06-19T11:49:00,42.805,6.029,4330,1995,193.479,59.174,13.292
2019-06-19T11:52:00,42.805,6.029,4330,1995,193.408,59.152,13.292
2019-06-19T11:55:00,42.805,6.029,4330,1995,193.480,59.175,13.293
2019-06-19T11:58:00,42.805,6.029,4330,1995,193.474,59.172,13.292
2019-06-19T12:01:00,42.805,6.029,4330,1995,193.425,59.158,13.292
2019-06-19T12:04:00,42.805,6.029,4330,1995,193.385,59.143,13.291
2019-06-19T12:07:00,42.805,6.029,4330,1995,193.365,59.138,13.291
2019-06-19T12:10:00,42.805,6.029,4330,1995,193.404,59.151,13.292
2019-06-19T12:13:00,42.805,6.029,4330,1995,193.393,59.146,13.291
2019-06-19T12:16:00,42.805,6.029,4330,1995,193.321,59.125,13.292
2019-06-19T12:19:00,42.805,6.029,4330,1995,193.214,59.095,13.294
2019-06-19T12:22:00,42.805,6.029,4330,1995,193.084,59.053,13.292
2019-06-19T12:25:00,42.805,6.029,4330,1995,193.166,59.078,13.292
2019-06-19T12:28:00,42.805,6.029,4330,1995,193.250,59.101,13.290
2019-06-19T12:31:00,42.805,6.029,4330,1995,193.249,59.103,13.292
2019-06-19T12:34:00,42.805,6.029,4330,1995,193.199,59.089,13.293
2019-06-19T12:37:00,42.805,6.029,4330,1995,193.232,59.098,13.292
2019-06-19T12:40:00,42.805,6.029,4330,1995,193.150,59.073,13.291
2019-06-19T12:43:00,42.805,6.029,4330,1995,193.168,59.080,13.293
2019-06-19T12:46:00,42.805,6.029,4330,1995,193.076,59.052,13.293
2019-06-19T12:49:00,42.805,6.029,4330,1995,193.129,59.069,13.293
2019-06-19T12:52:00,42.805,6.029,4330,1995,193.159,59.077,13.293
2019-06-19T12:55:00,42.805,6.029,4330,1995,193.256,59.107,13.293
2019-06-19T12:58:00,42.805,6.029,4330,1995,193.217,59.096,13.294
2019-06-19T13:01:00,42.805,6.029,4330,1995,193.172,59.083,13.294
2019-06-19T13:04:00,42.805,6.029,4330,1995,193.205,59.092,13.293
2019-06-19T13:07:00,42.805,6.029,4330,1995,193.088,59.058,13.295
2019-06-19T13:10:00,42.805,6.029,4330,1995,193.059,59.048,13.294
2019-06-19T13:13:00,42.805,6.029,4330,1995,193.032,59.039,13.293
2019-06-19T13:16:00,42.805,6.029,4330,1995,192.927,59.007,13.293
2019-06-19T13:19:00,42.805,6.029,4330,1995,192.944,59.013,13.294
2019-06-19T13:22:00,42.805,6.029,4330,1995,192.951,59.016,13.295
2019-06-19T13:25:00,42.805,6.029,4330,1995,192.933,59.009,13.293
2019-06-19T13:28:00,42.805,6.029,4330,1995,192.838,58.982,13.295
2019-06-19T13:31:00,42.805,6.029,4330,1995,192.895,58.998,13.294
2019-06-19T13:34:00,42.805,6.029,4330,1995,193.120,59.067,13.295
2019-06-19T13:43:00,42.805,6.029,4330,1995,192.902,58.994,13.289
2019-06-19T13:46:00,42.805,6.029,4330,1995,192.863,58.986,13.293
2019-06-19T13:49:00,42.805,6.029,4330,1995,192.663,58.929,13.295
2019-06-19T13:52:00,42.805,6.029,4330,1995,192.727,58.949,13.296
2019-06-19T13:55:00,42.805,6.029,4330,1995,192.502,58.879,13.295
2019-06-19T13:58:00,42.805,6.029,4330,1995,192.600,58.910,13.296
2019-06-19T14:01:00,42.805,6.029,4330,1995,192.755,58.959,13.297
2019-06-19T14:04:00,42.805,6.029,4330,1995,192.668,58.928,13.293
2019-06-19T14:07:00,42.805,6.029,4330,1995,192.768,58.962,13.296
2019-06-19T14:10:00,42.805,6.029,4330,1995,192.616,58.915,13.296
2019-06-19T14:13:00,42.805,6.029,4330,1995,192.544,58.895,13.297
2019-06-19T14:16:00,42.805,6.029,4330,1995,192.621,58.915,13.295
2019-06-19T14:19:00,42.805,6.029,4330,1995,192.861,58.987,13.294
2019-06-19T14:22:00,42.805,6.029,4330,1995,192.721,58.945,13.294
2019-06-19T14:25:00,42.805,6.029,4330,1995,192.743,58.953,13.296
2019-06-19T14:28:00,42.805,6.029,4330,1995,192.600,58.908,13.295
2019-06-19T14:31:00,42.805,6.029,4330,1995,192.623,58.915,13.294
2019-06-19T14:34:00,42.805,6.029,4330,1995,192.612,58.912,13.295
2019-06-19T14:37:00,42.805,6.029,4330,1995,192.552,58.896,13.296
2019-06-19T14:40:00,42.805,6.029,4330,1995,192.491,58.879,13.298
2019-06-19T14:43:00,42.805,6.029,4330,1995,192.285,58.820,13.301
2019-06-19T14:46:00,42.805,6.029,4330,1995,192.183,58.786,13.298
2019-06-19T14:49:00,42.805,6.029,4330,1995,192.126,58.775,13.303
2019-06-19T14:52:00,42.805,6.029,4330,1995,192.003,58.732,13.299
2019-06-19T14:55:00,42.805,6.029,4330,1995,192.003,58.729,13.297
2019-06-19T14:58:00,42.805,6.029,4330,1995,192.149,58.778,13.300
2019-06-19T15:01:00,42.805,6.029,4330,1995,192.167,58.782,13.299
2019-06-19T15:04:00,42.805,6.029,4330,1995,192.048,58.745,13.299
2019-06-19T15:07:00,42.805,6.029,4330,1995,192.116,58.765,13.298
2019-06-19T15:10:00,42.805,6.029,4330,1995,192.073,58.750,13.297
2019-06-19T15:13:00,42.805,6.029,4330,1995,192.034,58.736,13.295
2019-06-19T15:16:00,42.805,6.029,4330,1995,191.970,58.720,13.298
2019-06-19T15:19:00,42.805,6.029,4330,1995,191.927,58.707,13.298
2019-06-19T15:22:00,42.805,6.029,4330,1995,191.851,58.682,13.296
2019-06-19T15:25:00,42.805,6.029,4330,1995,191.861,58.685,13.297
2019-06-19T15:28:00,42.805,6.029,4330,1995,191.933,58.708,13.297
2019-06-19T15:31:00,42.805,6.029,4330,1995,191.829,58.678,13.299
2019-06-19T15:34:00,42.805,6.029,4330,1995,191.797,58.664,13.295
2019-06-19T15:37:00,42.805,6.029,4330,1995,191.969,58.713,13.293
2019-06-19T15:40:00,42.805,6.029,4330,1995,192.097,58.753,13.293
2019-06-19T15:43:00,42.805,6.029,4330,1995,192.108,58.762,13.297
2019-06-19T15:46:00,42.805,6.029,4330,1995,192.144,58.774,13.299
2019-06-19T15:49:00,42.805,6.029,4330,1995,192.034,58.741,13.299
2019-06-19T15:52:00,42.805,6.029,4330,1995,191.897,58.698,13.298
2019-06-19T15:55:00,42.805,6.029,4330,1995,191.923,58.702,13.295
2019-06-19T15:58:00,42.805,6.029,4330,1995,192.319,58.823,13.295
2019-06-19T16:01:00,42.805,6.029,4330,1995,192.344,58.831,13.295
2019-06-19T16:04:00,42.805,6.029,4330,1995,192.228,58.801,13.300
2019-06-19T16:07:00,42.805,6.029,4330,1995,192.275,58.811,13.296
2019-06-19T16:10:00,42.805,6.029,4330,1995,192.396,58.846,13.295
2019-06-19T16:16:00,42.805,6.029,4330,1995,192.121,58.761,13.294
2019-06-19T16:19:00,42.805,6.029,4330,1995,191.922,58.700,13.294
2019-06-19T16:22:00,42.805,6.029,4330,1995,192.217,58.790,13.294
2019-06-19T16:25:00,42.805,6.029,4330,1995,192.191,58.786,13.297
2019-06-19T16:28:00,42.805,6.029,4330,1995,191.901,58.700,13.299
2019-06-19T16:31:00,42.805,6.029,4330,1995,191.851,58.685,13.299
2019-06-19T16:34:00,42.805,6.029,4330,1995,191.690,58.632,13.296
2019-06-19T16:37:00,42.805,6.029,4330,1995,191.638,58.619,13.298
2019-06-19T16:40:00,42.805,6.029,4330,1995,191.906,58.698,13.296
2019-06-19T16:43:00,42.805,6.029,4330,1995,191.930,58.705,13.295
2019-06-19T16:46:00,42.805,6.029,4330,1995,191.945,58.709,13.296
2019-06-19T16:49:00,42.805,6.029,4330,1995,192.030,58.735,13.295
2019-06-19T16:52:00,42.805,6.029,4330,1995,192.016,58.731,13.296
2019-06-19T16:55:00,42.805,6.029,4330,1995,191.908,58.697,13.295
2019-06-19T16:58:00,42.805,6.029,4330,1995,191.752,58.652,13.297
2019-06-19T17:01:00,42.805,6.029,4330,1995,192.015,58.734,13.298
2019-06-19T17:04:00,42.805,6.029,4330,1995,191.904,58.709,13.305
2019-06-19T17:07:00,42.805,6.029,4330,1995,191.605,58.613,13.301
2019-06-19T17:10:00,42.805,6.029,4330,1995,191.208,58.488,13.298
2019-06-19T17:13:00,42.805,6.029,4330,1995,191.243,58.497,13.297
2019-06-19T17:16:00,42.805,6.029,4330,1995,191.467,58.570,13.301
2019-06-19T17:19:00,42.805,6.029,4330,1995,191.774,58.658,13.296
2019-06-19T17:22:00,42.805,6.029,4330,1995,192.384,58.848,13.299
2019-06-19T17:25:00,42.805,6.029,4330,1995,192.420,58.863,13.302
2019-06-19T17:28:00,42.805,6.029,4330,1995,192.092,58.761,13.301
2019-06-19T17:31:00,42.805,6.029,4330,1995,191.939,58.712,13.299
2019-06-19T17:34:00,42.805,6.029,4330,1995,191.664,58.634,13.304
2019-06-19T17:37:00,42.805,6.029,4330,1995,191.649,58.624,13.300
2019-06-19T17:40:00,42.805,6.029,4330,1995,191.515,58.586,13.302
2019-06-19T17:43:00,42.805,6.029,4330,1995,191.642,58.624,13.301
2019-06-19T17:46:00,42.805,6.029,4330,1995,191.895,58.701,13.301
2019-06-19T17:49:00,42.805,6.029,4330,1995,191.949,58.713,13.298
2019-06-19T17:52:00,42.805,6.029,4330,1995,192.012,58.738,13.302
2019-06-19T17:55:00,42.805,6.029,4330,1995,192.201,58.789,13.297
2019-06-19T17:58:00,42.805,6.029,4330,1995,192.253,58.810,13.301
2019-06-19T18:01:00,42.805,6.029,4330,1995,192.520,58.889,13.298
2019-06-19T18:04:00,42.805,6.029,4330,1995,192.550,58.895,13.296
2019-06-19T18:07:00,42.805,6.029,4330,1995,192.525,58.886,13.295
2019-06-19T18:10:00,42.805,6.029,4330,1995,192.756,58.958,13.296
2019-06-19T18:13:00,42.805,6.029,4330,1995,192.637,58.923,13.297
2019-06-19T18:16:00,42.805,6.029,4330,1995,192.422,58.855,13.295
2019-06-19T18:19:00,42.805,6.029,4330,1995,192.565,58.902,13.298
2019-06-19T18:22:00,42.805,6.029,4330,1995,192.572,58.900,13.295
2019-06-19T18:25:00,42.805,6.029,4330,1995,192.500,58.879,13.296
2019-06-19T18:28:00,42.805,6.029,4330,1995,192.626,58.917,13.295
2019-06-19T18:31:00,42.805,6.029,4330,1995,192.419,58.856,13.297
2019-06-19T18:34:00,42.805,6.029,4330,1995,192.458,58.864,13.294